Time,TemperatureF,DewpointF,PressureIn,WindDirection,WindDirectionDegrees,WindSpeedMPH,WindSpeedGustMPH,Humidity,HourlyPrecipIn,Conditions,Clouds,dailyrainin,SoftwareType,DateUTC
2013-08-30 00:00:00,69.3,55.3,29.85,WSW,245,10.0,11.0,61,0.00,,,0.00,VWS V15.00,2013-08-30 06:00:00,
2013-08-30 00:01:00,69.2,55.2,29.85,WSW,246,6.0,11.0,61,0.00,,SKC,0.00,VWS V14.01,2013-08-30 06:01:00,
2013-08-30 00:06:00,69.2,55.2,29.84,WSW,239,5.0,10.0,61,0.00,,SKC,0.00,VWS V14.01,2013-08-30 06:06:00,
2013-08-30 00:11:00,69.2,55.6,29.84,WSW,247,6.0,10.0,62,0.00,,SKC,0.00,VWS V14.01,2013-08-30 06:11:00,
2013-08-30 00:16:00,69.5,55.5,29.84,WSW,238,6.0,10.0,61,0.00,,SKC,0.00,VWS V14.01,2013-08-30 06:16:00,
2013-08-30 00:21:00,69.7,55.7,29.84,SW,236,7.0,11.0,61,0.00,,SKC,0.00,VWS V14.01,2013-08-30 06:21:00,
2013-08-30 00:26:00,69.7,55.2,29.84,WSW,249,5.0,11.0,60,0.00,,SKC,0.00,VWS V14.01,2013-08-30 06:26:00,
2013-08-30 00:30:00,69.0,55.0,29.83,WSW,248,7.0,11.0,61,0.00,,,0.00,VWS V15.00,2013-08-30 06:30:00,
2013-08-30 00:31:00,69.3,55.3,29.83,North,360,5.0,11.0,61,0.00,,SKC,0.00,VWS V14.01,2013-08-30 06:31:00,
2013-08-30 00:36:00,68.8,54.8,29.83,WSW,242,6.0,8.0,61,0.00,,SKC,0.00,VWS V14.01,2013-08-30 06:36:00,
2013-08-30 00:41:00,68.8,55.3,29.84,WSW,239,6.0,11.0,62,0.00,,SKC,0.00,VWS V14.01,2013-08-30 06:41:00,
2013-08-30 00:46:00,69.0,55.0,29.84,SW,232,8.0,12.0,61,0.00,,SKC,0.00,VWS V14.01,2013-08-30 06:46:00,
2013-08-30 00:51:00,69.0,55.0,29.84,WSW,242,6.0,12.0,61,0.00,,SKC,0.00,VWS V14.01,2013-08-30 06:51:00,
2013-08-30 00:56:00,69.1,55.1,29.83,WSW,245,6.0,12.0,61,0.00,,SKC,0.00,VWS V14.01,2013-08-30 06:56:00,
2013-08-30 01:00:00,69.6,55.6,29.83,WSW,240,7.0,12.0,61,0.00,,,0.00,VWS V15.00,2013-08-30 07:00:00,
2013-08-30 01:01:00,69.5,55.5,29.83,WSW,244,6.0,12.0,61,0.00,,SKC,0.00,VWS V14.01,2013-08-30 07:01:00,
2013-08-30 01:06:00,69.6,55.1,29.82,WSW,244,5.0,7.0,60,0.00,,SKC,0.00,VWS V14.01,2013-08-30 07:06:00,
2013-08-30 01:11:00,69.7,55.7,29.83,WSW,253,6.0,7.0,61,0.00,,SKC,0.00,VWS V14.01,2013-08-30 07:11:00,
2013-08-30 01:16:00,69.7,55.7,29.82,WSW,241,4.0,9.0,61,0.00,,SKC,0.00,VWS V14.01,2013-08-30 07:16:00,
2013-08-30 01:21:00,69.7,55.7,29.82,WSW,252,5.0,9.0,61,0.00,,SKC,0.00,VWS V14.01,2013-08-30 07:21:00,
2013-08-30 01:26:00,69.8,55.8,29.82,WSW,250,6.0,9.0,61,0.00,,SKC,0.00,VWS V14.01,2013-08-30 07:26:00,
2013-08-30 01:30:00,69.9,55.8,29.82,SW,232,2.0,9.0,61,0.00,,,0.00,VWS V15.00,2013-08-30 07:30:00,
2013-08-30 01:31:00,69.9,55.8,29.82,WSW,242,5.0,9.0,61,0.00,,SKC,0.00,VWS V14.01,2013-08-30 07:31:00,
2013-08-30 01:36:00,69.9,55.8,29.82,SW,232,0.0,2.0,61,0.00,,SKC,0.00,VWS V14.01,2013-08-30 07:36:00,
2013-08-30 01:41:00,69.9,55.8,29.81,SW,232,0.0,2.0,61,0.00,,SKC,0.00,VWS V14.01,2013-08-30 07:41:00,
2013-08-30 01:46:00,69.8,55.8,29.81,SW,232,0.0,2.0,61,0.00,,SKC,0.00,VWS V14.01,2013-08-30 07:46:00,
2013-08-30 01:51:00,69.6,56.0,29.81,SW,232,0.0,2.0,62,0.00,,SKC,0.00,VWS V14.01,2013-08-30 07:51:00,
2013-08-30 01:56:00,69.5,56.8,29.80,SSW,203,5.0,6.0,64,0.00,,SKC,0.00,VWS V14.01,2013-08-30 07:56:00,
2013-08-30 02:00:00,70.2,57.0,29.81,SW,214,3.0,6.0,63,0.00,,,0.00,VWS V15.00,2013-08-30 08:00:00,
2013-08-30 02:01:00,69.9,57.2,29.81,SW,214,2.0,6.0,64,0.00,,SKC,0.00,VWS V14.01,2013-08-30 08:01:00,
2013-08-30 02:06:00,70.4,56.8,29.81,SW,215,1.0,3.0,62,0.00,,SKC,0.00,VWS V14.01,2013-08-30 08:06:00,
2013-08-30 02:11:00,70.7,56.6,29.81,SW,215,3.0,4.0,61,0.00,,SKC,0.00,VWS V14.01,2013-08-30 08:11:00,
2013-08-30 02:16:00,70.8,56.7,29.80,SW,215,3.0,4.0,61,0.00,,SKC,0.00,VWS V14.01,2013-08-30 08:16:00,
2013-08-30 02:21:00,71.2,56.6,29.81,SW,214,2.0,4.0,60,0.00,,SKC,0.00,VWS V14.01,2013-08-30 08:21:00,
2013-08-30 02:26:00,71.3,56.2,29.81,SW,215,0.0,4.0,59,0.00,,SKC,0.00,VWS V14.01,2013-08-30 08:26:00,
2013-08-30 02:30:00,70.7,56.6,29.81,SW,215,0.0,4.0,61,0.00,,,0.00,VWS V15.00,2013-08-30 08:30:00,
2013-08-30 02:31:00,70.9,56.3,29.81,SW,215,0.0,4.0,60,0.00,,SKC,0.00,VWS V14.01,2013-08-30 08:31:00,
2013-08-30 02:36:00,70.5,56.4,29.81,SW,215,0.0,0.0,61,0.00,,SKC,0.00,VWS V14.01,2013-08-30 08:36:00,
2013-08-30 02:41:00,70.2,56.1,29.81,SW,215,0.0,0.0,61,0.00,,SKC,0.00,VWS V14.01,2013-08-30 08:41:00,
2013-08-30 02:46:00,70.0,56.0,29.81,SW,215,0.0,0.0,61,0.00,,SKC,0.00,VWS V14.01,2013-08-30 08:46:00,
2013-08-30 02:51:00,69.8,55.8,29.81,SW,215,0.0,0.0,61,0.00,,SKC,0.00,VWS V14.01,2013-08-30 08:51:00,
2013-08-30 02:56:00,69.5,55.9,29.81,SW,215,0.0,0.0,62,0.00,,SKC,0.00,VWS V14.01,2013-08-30 08:56:00,
2013-08-30 03:00:00,69.2,56.1,29.82,SW,215,0.0,0.0,63,0.00,,,0.00,VWS V15.00,2013-08-30 09:00:00,
2013-08-30 03:01:00,69.4,56.3,29.82,SW,215,0.0,0.0,63,0.00,,SKC,0.00,VWS V14.01,2013-08-30 09:01:00,
2013-08-30 03:06:00,69.1,56.0,29.82,SW,215,0.0,0.0,63,0.00,,SKC,0.00,VWS V14.01,2013-08-30 09:06:00,
2013-08-30 03:11:00,68.8,55.7,29.82,SW,215,0.0,0.0,63,0.00,,SKC,0.00,VWS V14.01,2013-08-30 09:11:00,
2013-08-30 03:16:00,68.6,56.0,29.81,SW,215,0.0,0.0,64,0.00,,SKC,0.00,VWS V14.01,2013-08-30 09:16:00,
2013-08-30 03:21:00,68.4,55.8,29.81,SW,215,0.0,0.0,64,0.00,,SKC,0.00,VWS V14.01,2013-08-30 09:21:00,
2013-08-30 03:26:00,68.3,55.2,29.82,SW,215,0.0,0.0,63,0.00,,SKC,0.00,VWS V14.01,2013-08-30 09:26:00,
2013-08-30 03:30:00,67.9,55.3,29.82,SW,215,0.0,0.0,64,0.00,,,0.00,VWS V15.00,2013-08-30 09:30:00,
2013-08-30 03:31:00,68.0,55.4,29.82,SW,215,0.0,0.0,64,0.00,,SKC,0.00,VWS V14.01,2013-08-30 09:31:00,
2013-08-30 03:36:00,67.9,55.7,29.81,SW,215,0.0,0.0,65,0.00,,SKC,0.00,VWS V14.01,2013-08-30 09:36:00,
2013-08-30 03:41:00,67.7,55.5,29.82,SW,215,0.0,0.0,65,0.00,,SKC,0.00,VWS V14.01,2013-08-30 09:41:00,
2013-08-30 03:46:00,67.1,55.4,29.82,SW,215,0.0,0.0,66,0.00,,SKC,0.00,VWS V14.01,2013-08-30 09:46:00,
2013-08-30 03:51:00,66.7,55.4,29.82,SW,215,0.0,0.0,67,0.00,,SKC,0.00,VWS V14.01,2013-08-30 09:51:00,
2013-08-30 03:56:00,66.3,55.0,29.83,SW,215,0.0,0.0,67,0.00,,SKC,0.00,VWS V14.01,2013-08-30 09:56:00,
2013-08-30 04:00:00,65.8,55.0,29.83,SW,215,0.0,0.0,68,0.00,,,0.00,VWS V15.00,2013-08-30 10:00:00,
2013-08-30 04:01:00,66.0,55.2,29.83,SW,215,0.0,0.0,68,0.00,,SKC,0.00,VWS V14.01,2013-08-30 10:01:00,
2013-08-30 04:06:00,65.5,55.1,29.83,SW,215,0.0,0.0,69,0.00,,SKC,0.00,VWS V14.01,2013-08-30 10:06:00,
2013-08-30 04:11:00,65.1,54.7,29.84,SW,215,0.0,0.0,69,0.00,,SKC,0.00,VWS V14.01,2013-08-30 10:11:00,
2013-08-30 04:16:00,64.6,54.2,29.83,SW,215,0.0,0.0,69,0.00,,SKC,0.00,VWS V14.01,2013-08-30 10:16:00,
2013-08-30 04:21:00,64.3,54.3,29.83,SW,215,0.0,0.0,70,0.00,,SKC,0.00,VWS V14.01,2013-08-30 10:21:00,
2013-08-30 04:26:00,64.1,54.5,29.83,SW,215,0.0,0.0,71,0.00,,SKC,0.00,VWS V14.01,2013-08-30 10:26:00,
2013-08-30 04:30:00,63.7,54.5,29.83,SW,215,0.0,0.0,72,0.00,,,0.00,VWS V15.00,2013-08-30 10:30:00,
2013-08-30 04:31:00,63.8,54.2,29.83,SW,215,0.0,0.0,71,0.00,,SKC,0.00,VWS V14.01,2013-08-30 10:31:00,
2013-08-30 04:36:00,63.6,54.4,29.83,SW,215,0.0,0.0,72,0.00,,SKC,0.00,VWS V14.01,2013-08-30 10:36:00,
2013-08-30 04:41:00,63.5,54.7,29.83,SW,215,0.0,0.0,73,0.00,,SKC,0.00,VWS V14.01,2013-08-30 10:41:00,
2013-08-30 04:46:00,63.3,54.5,29.84,SW,215,0.0,0.0,73,0.00,,SKC,0.00,VWS V14.01,2013-08-30 10:46:00,
2013-08-30 04:51:00,63.2,54.4,29.84,SW,215,0.0,0.0,73,0.00,,SKC,0.00,VWS V14.01,2013-08-30 10:51:00,
2013-08-30 04:56:00,63.0,54.2,29.84,SW,215,0.0,0.0,73,0.00,,SKC,0.00,VWS V14.01,2013-08-30 10:56:00,
2013-08-30 05:00:00,63.0,54.6,29.84,SW,215,0.0,0.0,74,0.00,,,0.00,VWS V15.00,2013-08-30 11:00:00,
2013-08-30 05:01:00,63.0,54.6,29.84,SW,215,0.0,0.0,74,0.00,,SKC,0.00,VWS V14.01,2013-08-30 11:01:00,
2013-08-30 05:06:00,62.9,54.5,29.84,SW,215,0.0,0.0,74,0.00,,SKC,0.00,VWS V14.01,2013-08-30 11:06:00,
2013-08-30 05:11:00,62.9,54.9,29.84,SW,215,0.0,0.0,75,0.00,,SKC,0.00,VWS V14.01,2013-08-30 11:11:00,
2013-08-30 05:16:00,62.7,54.7,29.83,SW,215,0.0,0.0,75,0.00,,SKC,0.00,VWS V14.01,2013-08-30 11:16:00,
2013-08-30 05:21:00,62.6,54.2,29.83,SW,215,0.0,0.0,74,0.00,,SKC,0.00,VWS V14.01,2013-08-30 11:21:00,
2013-08-30 05:26:00,62.5,54.5,29.83,SW,215,0.0,0.0,75,0.00,,SKC,0.00,VWS V14.01,2013-08-30 11:26:00,
2013-08-30 05:30:00,62.5,54.5,29.83,SW,215,0.0,0.0,75,0.00,,,0.00,VWS V15.00,2013-08-30 11:30:00,
2013-08-30 05:31:00,62.5,54.5,29.83,SW,215,0.0,0.0,75,0.00,,SKC,0.00,VWS V14.01,2013-08-30 11:31:00,
2013-08-30 05:36:00,62.4,54.4,29.84,SW,215,0.0,0.0,75,0.00,,SKC,0.00,VWS V14.01,2013-08-30 11:36:00,
2013-08-30 05:41:00,62.3,54.7,29.84,SW,215,0.0,0.0,76,0.00,,SKC,0.00,VWS V14.01,2013-08-30 11:41:00,
2013-08-30 05:46:00,62.3,54.7,29.84,SW,217,3.0,5.0,76,0.00,,SKC,0.00,VWS V14.01,2013-08-30 11:46:00,
2013-08-30 05:51:00,62.5,54.8,29.84,WSW,244,4.0,6.0,76,0.00,,SKC,0.00,VWS V14.01,2013-08-30 11:51:00,
2013-08-30 05:56:00,62.7,54.7,29.84,WSW,246,4.0,6.0,75,0.00,,SKC,0.00,VWS V14.01,2013-08-30 11:56:00,
2013-08-30 06:00:00,62.9,54.9,29.84,WSW,246,0.0,6.0,75,0.00,,,0.00,VWS V15.00,2013-08-30 12:00:00,
2013-08-30 06:01:00,62.9,54.9,29.84,WSW,246,0.0,6.0,75,0.00,,SKC,0.00,VWS V14.01,2013-08-30 12:01:00,
2013-08-30 06:06:00,63.0,54.6,29.86,WSW,246,0.0,0.0,74,0.00,,SKC,0.00,VWS V14.01,2013-08-30 12:06:00,
2013-08-30 06:11:00,63.0,54.6,29.85,WSW,245,0.0,0.0,74,0.00,,SKC,0.00,VWS V14.01,2013-08-30 12:11:00,
2013-08-30 06:16:00,62.9,54.9,29.85,WSW,244,0.0,0.0,75,0.00,,SKC,0.00,VWS V14.01,2013-08-30 12:16:00,
2013-08-30 06:21:00,62.9,54.9,29.85,WSW,244,0.0,0.0,75,0.00,,SKC,0.00,VWS V14.01,2013-08-30 12:21:00,
2013-08-30 06:26:00,64.1,58.5,29.84,South,170,10.0,10.0,82,0.00,,SKC,0.00,VWS V14.01,2013-08-30 12:26:00,
2013-08-30 06:30:00,67.6,58.7,29.84,North,360,5.0,10.0,73,0.00,,,0.00,VWS V15.00,2013-08-30 12:30:00,
2013-08-30 06:31:00,66.8,59.0,29.84,SSE,155,5.0,10.0,76,0.00,,SKC,0.00,VWS V14.01,2013-08-30 12:31:00,
2013-08-30 06:36:00,68.2,58.8,29.83,North,360,4.0,9.0,72,0.00,,SKC,0.00,VWS V14.01,2013-08-30 12:36:00,
2013-08-30 06:41:00,69.2,59.0,29.83,SSE,167,5.0,9.0,70,0.00,,SKC,0.00,VWS V14.01,2013-08-30 12:41:00,
2013-08-30 06:46:00,69.8,58.4,29.83,SSE,164,5.0,9.0,67,0.00,,SKC,0.00,VWS V14.01,2013-08-30 12:46:00,
2013-08-30 06:51:00,70.2,58.7,29.83,SSE,163,4.0,9.0,67,0.00,,SKC,0.00,VWS V14.01,2013-08-30 12:51:00,
2013-08-30 06:56:00,70.4,57.7,29.82,SSE,148,6.0,9.0,64,0.00,,SKC,0.00,VWS V14.01,2013-08-30 12:56:00,
2013-08-30 07:00:00,70.1,56.9,29.82,SSE,155,6.0,9.0,63,0.00,,,0.00,VWS V15.00,2013-08-30 13:00:00,
2013-08-30 07:01:00,70.3,57.1,29.82,SSE,155,5.0,9.0,63,0.00,,SKC,0.00,VWS V14.01,2013-08-30 13:01:00,
2013-08-30 07:06:00,69.9,56.8,29.83,SSE,157,5.0,6.0,63,0.00,,SKC,0.00,VWS V14.01,2013-08-30 13:06:00,
2013-08-30 07:11:00,69.7,57.0,29.83,North,360,4.0,8.0,64,0.00,,SKC,0.00,VWS V14.01,2013-08-30 13:11:00,
2013-08-30 07:16:00,69.6,56.9,29.84,SSE,148,3.0,8.0,64,0.00,,SKC,0.00,VWS V14.01,2013-08-30 13:16:00,
2013-08-30 07:21:00,69.7,57.0,29.84,SE,141,1.0,8.0,64,0.00,,SKC,0.00,VWS V14.01,2013-08-30 13:21:00,
2013-08-30 07:26:00,70.1,57.8,29.83,SE,129,5.0,8.0,65,0.00,,SKC,0.00,VWS V14.01,2013-08-30 13:26:00,
2013-08-30 07:30:00,71.1,58.3,29.83,SE,130,4.0,8.0,64,0.00,,,0.00,VWS V15.00,2013-08-30 13:30:00,
2013-08-30 07:31:00,70.8,58.0,29.83,SE,129,2.0,8.0,64,0.00,,SKC,0.00,VWS V14.01,2013-08-30 13:31:00,
2013-08-30 07:36:00,71.3,58.5,29.83,SE,129,2.0,5.0,64,0.00,,SKC,0.00,VWS V14.01,2013-08-30 13:36:00,
2013-08-30 07:41:00,71.9,58.6,29.83,SE,126,0.0,5.0,63,0.00,,SKC,0.00,VWS V14.01,2013-08-30 13:41:00,
2013-08-30 07:46:00,72.5,58.8,29.82,ESE,105,0.0,5.0,62,0.00,,SKC,0.00,VWS V14.01,2013-08-30 13:46:00,
2013-08-30 07:51:00,73.1,59.3,29.82,ESE,115,0.0,5.0,62,0.00,,SKC,0.00,VWS V14.01,2013-08-30 13:51:00,
2013-08-30 07:56:00,73.8,60.0,29.82,North,360,3.0,5.0,62,0.00,,SKC,0.00,VWS V14.01,2013-08-30 13:56:00,
2013-08-30 08:00:00,75.3,60.9,29.82,East,84,0.0,5.0,61,0.00,,,0.00,VWS V15.00,2013-08-30 14:00:00,
2013-08-30 08:01:00,74.6,60.3,29.82,ESE,115,0.0,5.0,61,0.00,,SKC,0.00,VWS V14.01,2013-08-30 14:01:00,
2013-08-30 08:06:00,75.7,61.3,29.83,East,87,0.0,0.0,61,0.00,,SKC,0.00,VWS V14.01,2013-08-30 14:06:00,
2013-08-30 08:11:00,76.5,61.1,29.83,SE,131,5.0,6.0,59,0.00,,SKC,0.00,VWS V14.01,2013-08-30 14:11:00,
2013-08-30 08:16:00,77.2,61.3,29.83,North,360,7.0,10.0,58,0.00,,SKC,0.00,VWS V14.01,2013-08-30 14:16:00,
2013-08-30 08:21:00,77.7,61.8,29.83,North,360,7.0,10.0,58,0.00,,SKC,0.00,VWS V14.01,2013-08-30 14:21:00,
2013-08-30 08:26:00,78.1,61.6,29.83,North,360,5.0,13.0,57,0.00,,SKC,0.00,VWS V14.01,2013-08-30 14:26:00,
2013-08-30 08:30:00,78.7,62.2,29.83,North,360,7.0,13.0,57,0.00,,,0.00,VWS V15.00,2013-08-30 14:30:00,
2013-08-30 08:31:00,78.5,62.0,29.83,ESE,117,12.0,13.0,57,0.00,,SKC,0.00,VWS V14.01,2013-08-30 14:31:00,
2013-08-30 08:36:00,78.8,61.8,29.83,North,360,9.0,12.0,56,0.00,,SKC,0.00,VWS V14.01,2013-08-30 14:36:00,
2013-08-30 08:41:00,79.0,62.0,29.83,North,360,7.0,13.0,56,0.00,,SKC,0.00,VWS V14.01,2013-08-30 14:41:00,
2013-08-30 08:46:00,79.3,62.3,29.83,North,360,11.0,13.0,56,0.00,,SKC,0.00,VWS V14.01,2013-08-30 14:46:00,
2013-08-30 08:51:00,79.6,63.0,29.82,North,360,15.0,15.0,57,0.00,,SKC,0.00,VWS V14.01,2013-08-30 14:51:00,
2013-08-30 08:56:00,80.2,63.6,29.82,North,360,7.0,15.0,57,0.00,,SKC,0.00,VWS V14.01,2013-08-30 14:56:00,
2013-08-30 09:00:00,80.6,63.0,29.82,North,360,11.0,15.0,55,0.00,,,0.00,VWS V15.00,2013-08-30 15:00:00,
2013-08-30 09:01:00,80.5,63.9,29.82,North,360,6.0,15.0,57,0.00,,SKC,0.00,VWS V14.01,2013-08-30 15:01:00,
2013-08-30 09:06:00,80.7,63.0,29.83,North,360,11.0,13.0,55,0.00,,SKC,0.00,VWS V14.01,2013-08-30 15:06:00,
2013-08-30 09:11:00,80.7,63.6,29.83,SE,134,5.0,15.0,56,0.00,,SKC,0.00,VWS V14.01,2013-08-30 15:11:00,
2013-08-30 09:15:00,80.9,63.8,29.82,North,360,10.0,15.0,56,0.00,,SKC,0.00,VWS V14.01,2013-08-30 15:15:00,
2013-08-30 09:20:00,81.3,63.6,29.82,North,360,12.0,15.0,55,0.00,,SKC,0.00,VWS V14.01,2013-08-30 15:20:00,
2013-08-30 09:25:00,81.5,63.8,29.82,North,360,6.0,15.0,55,0.00,,SKC,0.00,VWS V14.01,2013-08-30 15:25:00,
2013-08-30 09:30:00,81.7,64.0,29.82,SE,125,18.0,18.0,55,0.00,,SKC,0.00,VWS V14.01,2013-08-30 15:30:00,
2013-08-30 09:35:00,81.8,64.1,29.82,SSE,167,12.0,16.0,55,0.00,,SKC,0.00,VWS V14.01,2013-08-30 15:35:00,
2013-08-30 09:40:00,82.3,64.5,29.81,SSE,160,12.0,16.0,55,0.00,,SKC,0.00,VWS V14.01,2013-08-30 15:40:00,
2013-08-30 09:45:00,82.8,65.0,29.80,SSE,151,11.0,18.0,55,0.00,,SKC,0.00,VWS V14.01,2013-08-30 15:45:00,
2013-08-30 09:50:00,83.4,65.6,29.80,North,360,11.0,18.0,55,0.00,,SKC,0.00,VWS V14.01,2013-08-30 15:50:00,
2013-08-30 09:55:00,83.6,65.2,29.80,North,360,16.0,18.0,54,0.00,,SKC,0.00,VWS V14.01,2013-08-30 15:55:00,
2013-08-30 10:00:00,83.8,65.4,29.80,North,360,16.0,18.0,54,0.00,,SKC,0.00,VWS V14.01,2013-08-30 16:00:00,
2013-08-30 10:05:00,84.1,65.1,29.80,North,360,11.0,16.0,53,0.00,,SKC,0.00,VWS V14.01,2013-08-30 16:05:00,
2013-08-30 10:10:00,84.8,64.7,29.80,North,360,14.0,16.0,51,0.00,,SKC,0.00,VWS V14.01,2013-08-30 16:10:00,
2013-08-30 10:15:00,85.4,65.2,29.80,North,360,7.0,16.0,51,0.00,,SKC,0.00,VWS V14.01,2013-08-30 16:15:00,
2013-08-30 10:20:00,85.8,65.0,29.80,SSE,150,10.0,17.0,50,0.00,,SKC,0.00,VWS V14.01,2013-08-30 16:20:00,
2013-08-30 10:25:00,86.1,64.1,29.80,North,360,15.0,17.0,48,0.00,,SKC,0.00,VWS V14.01,2013-08-30 16:25:00,
2013-08-30 10:30:00,86.7,65.3,29.79,SSE,153,9.0,17.0,49,0.00,,SKC,0.00,VWS V14.01,2013-08-30 16:30:00,
2013-08-30 10:35:00,86.9,64.3,29.79,North,360,11.0,15.0,47,0.00,,SKC,0.00,VWS V14.01,2013-08-30 16:35:00,
2013-08-30 10:40:00,87.1,65.1,29.79,North,360,11.0,17.0,48,0.00,,SKC,0.00,VWS V14.01,2013-08-30 16:40:00,
2013-08-30 10:45:00,87.5,65.4,29.78,SSE,164,12.0,17.0,48,0.00,,SKC,0.00,VWS V14.01,2013-08-30 16:45:00,
2013-08-30 10:50:00,87.7,65.0,29.78,North,360,13.0,18.0,47,0.00,,SKC,0.00,VWS V14.01,2013-08-30 16:50:00,
2013-08-30 10:55:00,87.6,64.3,29.79,SSE,152,11.0,18.0,46,0.00,,SKC,0.00,VWS V14.01,2013-08-30 16:55:00,
2013-08-30 11:00:00,87.8,63.8,29.79,North,360,13.0,18.0,45,0.00,,SKC,0.00,VWS V14.01,2013-08-30 17:00:00,
2013-08-30 11:05:00,88.2,64.8,29.79,North,360,13.0,14.0,46,0.00,,SKC,0.00,VWS V14.01,2013-08-30 17:05:00,
2013-08-30 11:10:00,88.8,65.4,29.78,North,360,11.0,14.0,46,0.00,,SKC,0.00,VWS V14.01,2013-08-30 17:10:00,
2013-08-30 11:15:00,88.8,64.7,29.78,North,360,11.0,17.0,45,0.00,,SKC,0.00,VWS V14.01,2013-08-30 17:15:00,
2013-08-30 11:20:00,88.9,64.8,29.78,North,360,13.0,17.0,45,0.00,,SKC,0.00,VWS V14.01,2013-08-30 17:20:00,
2013-08-30 11:25:00,89.0,63.6,29.78,North,360,13.0,17.0,43,0.00,,SKC,0.00,VWS V14.01,2013-08-30 17:25:00,
2013-08-30 11:30:00,89.3,63.9,29.77,SE,137,5.0,17.0,43,0.00,,SKC,0.00,VWS V14.01,2013-08-30 17:30:00,
2013-08-30 11:35:00,89.6,64.8,29.77,North,360,13.0,16.0,44,0.00,,SKC,0.00,VWS V14.01,2013-08-30 17:35:00,
2013-08-30 11:40:00,90.0,63.2,29.77,SSE,153,13.0,18.0,41,0.00,,SKC,0.00,VWS V14.01,2013-08-30 17:40:00,
2013-08-30 11:45:00,90.3,63.4,29.77,SSE,148,6.0,18.0,41,0.00,,SKC,0.00,VWS V14.01,2013-08-30 17:45:00,
2013-08-30 11:50:00,90.7,64.5,29.76,North,360,9.0,18.0,42,0.00,,SKC,0.00,VWS V14.01,2013-08-30 17:50:00,
2013-08-30 11:55:00,91.1,64.1,29.76,North,360,11.0,18.0,41,0.00,,SKC,0.00,VWS V14.01,2013-08-30 17:55:00,
2013-08-30 12:00:00,90.9,60.3,29.76,SE,136,11.0,18.0,36,0.00,,SKC,0.00,VWS V14.01,2013-08-30 18:00:00,
2013-08-30 12:05:00,91.4,64.4,29.75,North,360,10.0,12.0,41,0.00,,SKC,0.00,VWS V14.01,2013-08-30 18:05:00,
2013-08-30 12:10:00,91.8,64.8,29.74,SSE,165,12.0,16.0,41,0.00,,SKC,0.00,VWS V14.01,2013-08-30 18:10:00,
2013-08-30 12:15:00,92.5,64.7,29.74,North,360,10.0,16.0,40,0.00,,SKC,0.00,VWS V14.01,2013-08-30 18:15:00,
2013-08-30 12:20:00,92.4,64.6,29.74,SSE,150,10.0,16.0,40,0.00,,SKC,0.00,VWS V14.01,2013-08-30 18:20:00,
2013-08-30 12:25:00,92.1,62.9,29.74,ENE,59,5.0,19.0,38,0.00,,SKC,0.00,VWS V14.01,2013-08-30 18:25:00,
2013-08-30 12:30:00,91.9,62.7,29.73,North,360,11.0,19.0,38,0.00,,SKC,0.00,VWS V14.01,2013-08-30 18:30:00,
2013-08-30 12:35:00,91.3,63.6,29.74,North,360,10.0,16.0,40,0.00,,SKC,0.00,VWS V14.01,2013-08-30 18:35:00,
2013-08-30 12:40:00,90.4,62.8,29.74,SSW,209,9.0,19.0,40,0.00,,SKC,0.00,VWS V14.01,2013-08-30 18:40:00,
2013-08-30 12:45:00,89.7,64.2,29.74,SSE,159,7.0,19.0,43,0.00,,SKC,0.00,VWS V14.01,2013-08-30 18:45:00,
2013-08-30 12:50:00,88.7,66.5,29.75,SSE,157,8.0,19.0,48,0.00,,SKC,0.00,VWS V14.01,2013-08-30 18:50:00,
2013-08-30 12:55:00,87.4,66.5,29.75,SSE,159,5.0,19.0,50,0.01,,SKC,0.01,VWS V14.01,2013-08-30 18:55:00,
2013-08-30 13:00:00,86.3,66.1,29.75,SE,146,12.0,19.0,51,0.01,,SKC,0.01,VWS V14.01,2013-08-30 19:00:00,
2013-08-30 13:05:00,85.5,66.4,29.75,North,360,7.0,10.0,53,0.02,,SKC,0.02,VWS V14.01,2013-08-30 19:05:00,
2013-08-30 13:10:00,84.5,68.1,29.75,SSE,165,5.0,10.0,58,0.03,,SKC,0.03,VWS V14.01,2013-08-30 19:10:00,
2013-08-30 13:15:00,83.3,68.9,29.74,SSE,163,6.0,10.0,62,0.04,,SKC,0.04,VWS V14.01,2013-08-30 19:15:00,
2013-08-30 13:20:00,81.4,67.6,29.77,South,189,14.0,15.0,63,0.06,,SKC,0.06,VWS V14.01,2013-08-30 19:20:00,
2013-08-30 13:25:00,79.3,67.4,29.78,South,184,10.0,19.0,67,0.08,,SKC,0.08,VWS V14.01,2013-08-30 19:25:00,
2013-08-30 13:30:00,78.1,67.1,29.77,South,181,5.0,19.0,69,0.08,,SKC,0.08,VWS V14.01,2013-08-30 19:30:00,
2013-08-30 13:35:00,77.7,67.1,29.77,SSE,155,4.0,7.0,70,0.08,,SKC,0.08,VWS V14.01,2013-08-30 19:35:00,
2013-08-30 13:40:00,77.4,67.7,29.76,North,360,13.0,14.0,72,0.08,,SKC,0.08,VWS V14.01,2013-08-30 19:40:00,
2013-08-30 13:45:00,77.1,67.4,29.77,SSW,198,9.0,17.0,72,0.08,,SKC,0.08,VWS V14.01,2013-08-30 19:45:00,
2013-08-30 13:50:00,77.1,67.0,29.77,South,175,13.0,17.0,71,0.08,,SKC,0.08,VWS V14.01,2013-08-30 19:50:00,
2013-08-30 13:55:00,77.1,67.4,29.77,North,360,6.0,17.0,72,0.08,,SKC,0.08,VWS V14.01,2013-08-30 19:55:00,
2013-08-30 14:00:00,76.9,67.2,29.76,SSE,161,12.0,19.0,72,0.08,,SKC,0.08,VWS V14.01,2013-08-30 20:00:00,
2013-08-30 14:05:00,76.8,67.5,29.76,SE,138,11.0,12.0,73,0.07,,SKC,0.08,VWS V14.01,2013-08-30 20:05:00,
2013-08-30 14:10:00,77.2,67.1,29.77,North,360,11.0,12.0,71,0.07,,SKC,0.08,VWS V14.01,2013-08-30 20:10:00,
2013-08-30 14:15:00,77.1,65.7,29.78,South,182,4.0,12.0,68,0.07,,SKC,0.08,VWS V14.01,2013-08-30 20:15:00,
2013-08-30 14:20:00,76.7,62.2,29.78,SSW,194,6.0,13.0,61,0.07,,SKC,0.08,VWS V14.01,2013-08-30 20:20:00,
2013-08-30 14:25:00,76.6,64.8,29.77,ESE,117,0.0,13.0,67,0.08,,SKC,0.09,VWS V14.01,2013-08-30 20:25:00,
2013-08-30 14:30:00,76.4,66.3,29.76,East,86,3.0,13.0,71,0.08,,SKC,0.09,VWS V14.01,2013-08-30 20:30:00,
2013-08-30 14:35:00,76.0,67.1,29.77,SSE,165,4.0,5.0,74,0.01,,SKC,0.09,VWS V14.01,2013-08-30 20:35:00,
2013-08-30 14:40:00,76.0,66.3,29.78,South,176,3.0,8.0,72,0.01,,SKC,0.09,VWS V14.01,2013-08-30 20:40:00,
2013-08-30 14:45:00,75.9,67.0,29.77,South,183,4.0,8.0,74,0.01,,SKC,0.09,VWS V14.01,2013-08-30 20:45:00,
2013-08-30 14:50:00,75.6,65.9,29.76,South,176,9.0,13.0,72,0.01,,SKC,0.09,VWS V14.01,2013-08-30 20:50:00,
2013-08-30 14:55:00,75.4,65.8,29.76,SSW,207,6.0,13.0,72,0.01,,SKC,0.09,VWS V14.01,2013-08-30 20:55:00,
2013-08-30 15:00:00,75.7,64.8,29.76,South,187,11.0,13.0,69,0.01,,SKC,0.09,VWS V14.01,2013-08-30 21:00:00,
2013-08-30 15:05:00,75.7,63.1,29.77,South,183,8.0,15.0,65,0.01,,SKC,0.09,VWS V14.01,2013-08-30 21:05:00,
2013-08-30 15:10:00,76.6,62.6,29.77,South,190,6.0,15.0,62,0.01,,SKC,0.09,VWS V14.01,2013-08-30 21:10:00,
2013-08-30 15:15:00,77.4,63.4,29.77,South,180,6.0,15.0,62,0.01,,SKC,0.09,VWS V14.01,2013-08-30 21:15:00,
2013-08-30 15:20:00,78.3,62.3,29.75,South,179,3.0,15.0,58,0.01,,SKC,0.09,VWS V14.01,2013-08-30 21:20:00,
2013-08-30 15:25:00,79.2,63.2,29.76,SW,221,9.0,15.0,58,0.01,,SKC,0.09,VWS V14.01,2013-08-30 21:25:00,
2013-08-30 15:30:00,80.0,63.4,29.75,SSW,210,4.0,15.0,57,0.01,,SKC,0.09,VWS V14.01,2013-08-30 21:30:00,
2013-08-30 15:35:00,80.8,65.6,29.74,SSE,165,9.0,10.0,60,0.00,,SKC,0.09,VWS V14.01,2013-08-30 21:35:00,
2013-08-30 15:40:00,81.3,67.1,29.74,South,178,6.0,12.0,62,0.00,,SKC,0.09,VWS V14.01,2013-08-30 21:40:00,
2013-08-30 15:45:00,81.6,67.8,29.74,South,182,8.0,14.0,63,0.00,,SKC,0.09,VWS V14.01,2013-08-30 21:45:00,
2013-08-30 15:50:00,82.1,67.8,29.73,South,191,8.0,14.0,62,0.00,,SKC,0.09,VWS V14.01,2013-08-30 21:50:00,
2013-08-30 15:55:00,82.5,68.2,29.74,North,360,9.0,14.0,62,0.00,,SKC,0.09,VWS V14.01,2013-08-30 21:55:00,
2013-08-30 16:00:00,83.0,67.2,29.74,South,176,5.0,14.0,59,0.00,,SKC,0.09,VWS V14.01,2013-08-30 22:00:00,
2013-08-30 16:05:00,83.3,67.0,29.74,South,170,10.0,16.0,58,0.00,,SKC,0.09,VWS V14.01,2013-08-30 22:05:00,
2013-08-30 16:10:00,83.3,66.5,29.74,North,360,9.0,16.0,57,0.00,,SKC,0.09,VWS V14.01,2013-08-30 22:10:00,
2013-08-30 16:15:00,83.3,64.9,29.73,North,360,11.0,18.0,54,0.00,,SKC,0.09,VWS V14.01,2013-08-30 22:15:00,
2013-08-30 16:20:00,83.6,65.7,29.73,North,360,10.0,18.0,55,0.00,,SKC,0.09,VWS V14.01,2013-08-30 22:20:00,
2013-08-30 16:25:00,83.7,65.3,29.73,North,360,14.0,18.0,54,0.00,,SKC,0.09,VWS V14.01,2013-08-30 22:25:00,
2013-08-30 16:30:00,83.6,66.3,29.73,SSE,149,11.0,18.0,56,0.00,,SKC,0.09,VWS V14.01,2013-08-30 22:30:00,
2013-08-30 16:35:00,83.4,66.1,29.73,North,360,12.0,16.0,56,0.00,,SKC,0.09,VWS V14.01,2013-08-30 22:35:00,
2013-08-30 16:40:00,82.8,63.9,29.72,South,183,11.0,16.0,53,0.00,,SKC,0.09,VWS V14.01,2013-08-30 22:40:00,
2013-08-30 16:45:00,82.8,62.3,29.72,North,360,10.0,18.0,50,0.00,,SKC,0.09,VWS V14.01,2013-08-30 22:45:00,
2013-08-30 16:50:00,83.2,60.9,29.72,South,182,11.0,19.0,47,0.00,,SKC,0.09,VWS V14.01,2013-08-30 22:50:00,
2013-08-30 16:55:00,83.6,60.7,29.72,SSW,192,7.0,19.0,46,0.00,,SKC,0.09,VWS V14.01,2013-08-30 22:55:00,
2013-08-30 17:00:00,84.2,60.0,29.72,SSW,194,10.0,19.0,44,0.00,,SKC,0.09,VWS V14.01,2013-08-30 23:00:00,
2013-08-30 17:05:00,84.8,59.8,29.71,South,180,7.0,10.0,43,0.00,,SKC,0.09,VWS V14.01,2013-08-30 23:05:00,
2013-08-30 17:10:00,85.4,59.0,29.71,South,180,9.0,10.0,41,0.00,,SKC,0.09,VWS V14.01,2013-08-30 23:10:00,
2013-08-30 17:15:00,85.9,59.5,29.70,South,170,4.0,10.0,41,0.00,,SKC,0.09,VWS V14.01,2013-08-30 23:15:00,
2013-08-30 17:20:00,86.3,59.2,29.70,SSW,200,4.0,10.0,40,0.00,,SKC,0.09,VWS V14.01,2013-08-30 23:20:00,
2013-08-30 17:25:00,86.6,58.7,29.69,South,179,6.0,10.0,39,0.00,,SKC,0.09,VWS V14.01,2013-08-30 23:25:00,
2013-08-30 17:30:00,86.7,58.1,29.69,North,360,7.0,10.0,38,0.00,,SKC,0.09,VWS V14.01,2013-08-30 23:30:00,
2013-08-30 17:35:00,86.7,58.8,29.69,SSE,164,5.0,10.0,39,0.00,,SKC,0.09,VWS V14.01,2013-08-30 23:35:00,
2013-08-30 17:40:00,86.6,59.4,29.69,North,360,7.0,10.0,40,0.00,,SKC,0.09,VWS V14.01,2013-08-30 23:40:00,
2013-08-30 17:45:00,86.6,60.1,29.69,North,360,2.0,10.0,41,0.00,,SKC,0.09,VWS V14.01,2013-08-30 23:45:00,
2013-08-30 17:50:00,86.6,60.8,29.69,North,360,6.0,10.0,42,0.00,,SKC,0.09,VWS V14.01,2013-08-30 23:50:00,
2013-08-30 17:55:00,86.6,60.1,29.68,SW,218,4.0,10.0,41,0.00,,SKC,0.09,VWS V14.01,2013-08-30 23:55:00,
2013-08-30 18:00:00,86.6,60.8,29.68,SSW,200,10.0,10.0,42,0.00,,SKC,0.09,VWS V14.01,2013-08-31 00:00:00,
2013-08-30 18:05:00,86.5,60.7,29.67,South,187,6.0,8.0,42,0.00,,SKC,0.09,VWS V14.01,2013-08-31 00:05:00,
2013-08-30 18:10:00,86.4,59.9,29.67,SSW,192,5.0,10.0,41,0.00,,SKC,0.09,VWS V14.01,2013-08-31 00:10:00,
2013-08-30 18:15:00,86.4,59.2,29.67,SSW,198,5.0,10.0,40,0.00,,SKC,0.09,VWS V14.01,2013-08-31 00:15:00,
2013-08-30 18:20:00,86.3,59.8,29.67,South,181,4.0,10.0,41,0.00,,SKC,0.09,VWS V14.01,2013-08-31 00:20:00,
2013-08-30 18:25:00,86.3,59.2,29.67,SSE,167,3.0,10.0,40,0.00,,SKC,0.09,VWS V14.01,2013-08-31 00:25:00,
2013-08-30 18:30:00,86.3,58.5,29.67,South,170,3.0,10.0,39,0.00,,SKC,0.09,VWS V14.01,2013-08-31 00:30:00,
2013-08-30 18:35:00,86.2,58.4,29.67,South,169,2.0,4.0,39,0.00,,SKC,0.09,VWS V14.01,2013-08-31 00:35:00,
2013-08-30 18:40:00,86.2,62.4,29.67,SE,141,2.0,4.0,45,0.00,,SKC,0.09,VWS V14.01,2013-08-31 00:40:00,
2013-08-30 18:45:00,85.7,61.9,29.67,SE,142,3.0,4.0,45,0.00,,SKC,0.09,VWS V14.01,2013-08-31 00:45:00,
2013-08-30 18:50:00,84.8,60.5,29.67,SSE,147,4.0,5.0,44,0.00,,SKC,0.09,VWS V14.01,2013-08-31 00:50:00,
2013-08-30 18:55:00,83.9,60.3,29.68,SE,142,5.0,5.0,45,0.00,,SKC,0.09,VWS V14.01,2013-08-31 00:55:00,
2013-08-30 19:00:00,83.3,61.6,29.68,North,360,6.0,13.0,48,0.00,,SKC,0.09,VWS V14.01,2013-08-31 01:00:00,
2013-08-30 19:05:00,82.6,62.1,29.67,North,360,12.0,13.0,50,0.00,,SKC,0.09,VWS V14.01,2013-08-31 01:05:00,
2013-08-30 19:10:00,81.8,61.4,29.67,SE,144,7.0,13.0,50,0.00,,SKC,0.09,VWS V14.01,2013-08-31 01:10:00,
2013-08-30 19:15:00,81.1,61.8,29.67,SSE,155,12.0,17.0,52,0.00,,SKC,0.09,VWS V14.01,2013-08-31 01:15:00,
2013-08-30 19:20:00,80.6,61.9,29.67,SSE,163,10.0,17.0,53,0.00,,SKC,0.09,VWS V14.01,2013-08-31 01:20:00,
2013-08-30 19:25:00,80.1,62.0,29.68,North,360,7.0,17.0,54,0.00,,SKC,0.09,VWS V14.01,2013-08-31 01:25:00,
2013-08-30 19:30:00,79.6,62.0,29.68,South,180,6.0,17.0,55,0.00,,SKC,0.09,VWS V14.01,2013-08-31 01:30:00,
2013-08-30 19:35:00,79.5,61.9,29.68,SSE,165,4.0,7.0,55,0.00,,SKC,0.09,VWS V14.01,2013-08-31 01:35:00,
2013-08-30 19:40:00,79.5,61.4,29.68,North,360,12.0,16.0,54,0.00,,SKC,0.09,VWS V14.01,2013-08-31 01:40:00,
2013-08-30 19:45:00,79.6,61.0,29.68,North,360,10.0,16.0,53,0.00,,SKC,0.09,VWS V14.01,2013-08-31 01:45:00,
2013-08-30 19:50:00,79.6,60.4,29.68,South,187,9.0,16.0,52,0.00,,SKC,0.09,VWS V14.01,2013-08-31 01:50:00,
2013-08-30 19:55:00,79.7,60.5,29.68,North,360,8.0,16.0,52,0.00,,SKC,0.09,VWS V14.01,2013-08-31 01:55:00,
2013-08-30 20:00:00,79.8,60.6,29.68,North,360,10.0,16.0,52,0.00,,SKC,0.09,VWS V14.01,2013-08-31 02:00:00,
2013-08-30 20:05:00,79.9,60.2,29.67,South,171,7.0,12.0,51,0.00,,SKC,0.09,VWS V14.01,2013-08-31 02:05:00,
2013-08-30 20:10:00,80.1,59.8,29.67,South,183,8.0,14.0,50,0.00,,SKC,0.09,VWS V14.01,2013-08-31 02:10:00,
2013-08-30 20:15:00,80.4,59.5,29.67,SSW,196,9.0,15.0,49,0.00,,SKC,0.09,VWS V14.01,2013-08-31 02:15:00,
2013-08-30 20:20:00,80.5,59.6,29.66,South,184,13.0,16.0,49,0.00,,SKC,0.09,VWS V14.01,2013-08-31 02:20:00,
2013-08-30 20:25:00,80.6,59.7,29.66,South,175,10.0,16.0,49,0.00,,SKC,0.09,VWS V14.01,2013-08-31 02:25:00,
2013-08-30 20:30:00,80.5,59.0,29.66,South,176,4.0,16.0,48,0.00,,SKC,0.09,VWS V14.01,2013-08-31 02:30:00,
2013-08-30 20:35:00,80.5,59.0,29.66,North,360,7.0,7.0,48,0.00,,SKC,0.09,VWS V14.01,2013-08-31 02:35:00,
2013-08-30 20:40:00,80.4,58.9,29.67,South,191,6.0,13.0,48,0.00,,SKC,0.09,VWS V14.01,2013-08-31 02:40:00,
2013-08-30 20:45:00,80.4,58.9,29.67,South,190,5.0,13.0,48,0.00,,SKC,0.09,VWS V14.01,2013-08-31 02:45:00,
2013-08-30 20:50:00,80.3,58.8,29.67,South,190,9.0,13.0,48,0.00,,SKC,0.09,VWS V14.01,2013-08-31 02:50:00,
2013-08-30 20:55:00,80.3,58.8,29.67,SSW,195,6.0,13.0,48,0.00,,SKC,0.09,VWS V14.01,2013-08-31 02:55:00,
2013-08-30 21:00:00,80.3,58.8,29.67,South,188,10.0,13.0,48,0.00,,SKC,0.09,VWS V14.01,2013-08-31 03:00:00,
2013-08-30 21:05:00,80.4,58.9,29.66,ESE,106,3.0,7.0,48,0.00,,SKC,0.09,VWS V14.01,2013-08-31 03:05:00,
2013-08-30 21:10:00,79.4,60.3,29.66,SSE,158,6.0,11.0,52,0.00,,SKC,0.09,VWS V14.01,2013-08-31 03:10:00,
2013-08-30 21:15:00,78.7,60.2,29.66,North,360,6.0,11.0,53,0.00,,SKC,0.09,VWS V14.01,2013-08-31 03:15:00,
2013-08-30 21:20:00,78.2,60.2,29.66,SE,145,3.0,11.0,54,0.00,,SKC,0.09,VWS V14.01,2013-08-31 03:20:00,
2013-08-30 21:25:00,77.9,60.5,29.66,SSE,164,8.0,11.0,55,0.00,,SKC,0.09,VWS V14.01,2013-08-31 03:25:00,
2013-08-30 21:30:00,77.6,60.7,29.66,North,360,10.0,11.0,56,0.00,,SKC,0.09,VWS V14.01,2013-08-31 03:30:00,
2013-08-30 21:35:00,77.3,60.4,29.66,North,360,10.0,10.0,56,0.00,,SKC,0.09,VWS V14.01,2013-08-31 03:35:00,
2013-08-30 21:40:00,77.0,60.6,29.66,North,360,10.0,15.0,57,0.00,,SKC,0.09,VWS V14.01,2013-08-31 03:40:00,
2013-08-30 21:45:00,77.1,60.2,29.66,SSE,163,6.0,17.0,56,0.00,,SKC,0.09,VWS V14.01,2013-08-31 03:45:00,
2013-08-30 21:50:00,77.6,60.2,29.65,North,360,10.0,18.0,55,0.00,,SKC,0.09,VWS V14.01,2013-08-31 03:50:00,
2013-08-30 21:55:00,77.9,60.5,29.65,North,360,6.0,18.0,55,0.00,,SKC,0.09,VWS V14.01,2013-08-31 03:55:00,
2013-08-30 22:00:00,78.0,60.0,29.65,SSW,194,6.0,18.0,54,0.00,,SKC,0.09,VWS V14.01,2013-08-31 04:00:00,
2013-08-30 22:01:00,78.0,60.0,29.65,South,191,3.0,18.0,54,0.00,,SKC,0.09,VWS V14.01,2013-08-31 04:01:00,
2013-08-30 22:02:00,78.0,60.0,29.65,South,188,3.0,18.0,54,0.00,,SKC,0.09,VWS V14.01,2013-08-31 04:02:00,
2013-08-30 22:07:00,77.9,59.9,29.64,SSW,203,3.0,6.0,54,0.00,,SKC,0.09,VWS V14.01,2013-08-31 04:07:00,
2013-08-30 22:12:00,77.9,59.9,29.64,SSW,211,6.0,6.0,54,0.00,,SKC,0.09,VWS V14.01,2013-08-31 04:12:00,
2013-08-30 22:16:00,77.8,59.8,29.64,SSW,200,8.0,13.0,54,0.00,,SKC,0.09,VWS V14.01,2013-08-31 04:16:00,
2013-08-30 22:22:00,77.9,59.9,29.64,South,179,4.0,13.0,54,0.00,,SKC,0.09,VWS V14.01,2013-08-31 04:22:00,
2013-08-30 22:27:00,78.1,60.1,29.64,SSW,194,6.0,13.0,54,0.00,,SKC,0.09,VWS V14.01,2013-08-31 04:27:00,
2013-08-30 22:30:00,78.3,59.8,29.64,SW,236,3.0,13.0,53,0.00,,,0.09,VWS V15.00,2013-08-31 04:30:00,
2013-08-30 22:31:00,78.2,59.7,29.64,SW,220,6.0,13.0,53,0.00,,SKC,0.09,VWS V14.01,2013-08-31 04:31:00,
2013-08-30 22:36:00,78.4,59.9,29.64,South,184,2.0,6.0,53,0.00,,SKC,0.09,VWS V14.01,2013-08-31 04:36:00,
2013-08-30 22:41:00,78.4,59.3,29.64,SW,221,0.0,6.0,52,0.00,,SKC,0.09,VWS V14.01,2013-08-31 04:41:00,
2013-08-30 22:46:00,78.3,60.8,29.64,SW,223,0.0,6.0,55,0.00,,SKC,0.09,VWS V14.01,2013-08-31 04:46:00,
2013-08-30 22:51:00,77.9,60.5,29.64,SW,223,0.0,6.0,55,0.00,,SKC,0.09,VWS V14.01,2013-08-31 04:51:00,
2013-08-30 22:56:00,76.7,60.8,29.65,East,101,2.0,6.0,58,0.00,,SKC,0.09,VWS V14.01,2013-08-31 04:56:00,
2013-08-30 23:00:00,74.7,60.8,29.65,East,101,0.0,6.0,62,0.00,,,0.09,VWS V15.00,2013-08-31 05:00:00,
2013-08-30 23:01:00,75.1,60.8,29.64,East,101,0.0,6.0,61,0.00,,SKC,0.09,VWS V14.01,2013-08-31 05:01:00,
2013-08-30 23:06:00,74.1,60.3,29.65,East,101,0.0,0.0,62,0.00,,SKC,0.09,VWS V14.01,2013-08-31 05:06:00,
2013-08-30 23:11:00,73.3,60.4,29.64,NNE,28,0.0,3.0,64,0.00,,SKC,0.09,VWS V14.01,2013-08-31 05:11:00,
2013-08-30 23:16:00,72.8,60.4,29.65,NNE,24,0.0,4.0,65,0.00,,SKC,0.09,VWS V14.01,2013-08-31 05:16:00,
2013-08-30 23:21:00,72.6,60.2,29.65,NNE,24,0.0,4.0,65,0.00,,SKC,0.09,VWS V14.01,2013-08-31 05:21:00,
2013-08-30 23:26:00,72.4,60.4,29.65,NNE,26,0.0,4.0,66,0.00,,SKC,0.09,VWS V14.01,2013-08-31 05:26:00,
2013-08-30 23:30:00,72.0,60.0,29.65,NNE,26,0.0,4.0,66,0.00,,,0.09,VWS V15.00,2013-08-31 05:30:00,
2013-08-30 23:32:00,72.1,60.1,29.65,NNE,26,0.0,4.0,66,0.00,,SKC,0.09,VWS V14.01,2013-08-31 05:32:00,
2013-08-30 23:37:00,71.9,59.9,29.65,NNE,25,0.0,0.0,66,0.00,,SKC,0.09,VWS V14.01,2013-08-31 05:37:00,
2013-08-30 23:42:00,71.7,59.3,29.65,SW,229,0.0,0.0,65,0.00,,SKC,0.09,VWS V14.01,2013-08-31 05:42:00,
2013-08-30 23:47:00,71.7,59.3,29.65,SW,229,0.0,0.0,65,0.00,,SKC,0.09,VWS V14.01,2013-08-31 05:47:00,
2013-08-30 23:52:00,71.9,59.1,29.65,SSW,210,4.0,8.0,64,0.00,,SKC,0.09,VWS V14.01,2013-08-31 05:52:00,
2013-08-30 23:57:00,72.5,59.2,29.65,SSW,210,0.0,8.0,63,0.00,,SKC,0.09,VWS V14.01,2013-08-31 05:57:00,